• In Uzbekistan
  • List of Countries
  • For 7 days
  • Water Temperature
  • Weather Map
  • Weather Widgets
  • user-avatar
    Login

    Hourly Weather Elbasan

    Today, 20 September, Friday

    Time Temperature Precipitation Wind Pressure Humidity
    00:00 +20°C° 1.5 mm 1 mps 736 mmHg 87%
    01:00 +20°C° 0 mm 1 mps 736 mmHg 86%
    02:00 +19°C° 1.3 mm 1 mps 736 mmHg 86%
    03:00 +18°C° 1.3 mm 2 mps 736 mmHg 86%
    04:00 +17°C° 1.3 mm 2 mps 736 mmHg 86%
    05:00 +17°C° 0.1 mm 3 mps 737 mmHg 83%
    06:00 +17°C° 0.1 mm 3 mps 737 mmHg 80%
    07:00 +16°C° 0.1 mm 3 mps 737 mmHg 77%
    08:00 +18°C° 0 mm 3 mps 737 mmHg 69%
    09:00 +19°C° 0 mm 3 mps 737 mmHg 62%
    10:00 +21°C° 0 mm 3 mps 738 mmHg 54%
    11:00 +22°C° 0 mm 3 mps 737 mmHg 50%
    12:00 +24°C° 0 mm 2 mps 737 mmHg 46%
    13:00 +25°C° 0 mm 2 mps 737 mmHg 42%
    14:00 +25°C° 0 mm 2 mps 737 mmHg 41%
    15:00 +25°C° 0 mm 2 mps 737 mmHg 40%
    16:00 +25°C° 0 mm 2 mps 737 mmHg 39%
    17:00 +23°C° 0 mm 2 mps 737 mmHg 42%
    18:00 +21°C° 0 mm 2 mps 738 mmHg 45%
    19:00 +19°C° 0 mm 2 mps 738 mmHg 48%
    20:00 +18°C° 0 mm 2 mps 738 mmHg 47%
    21:00 +17°C° 0 mm 2 mps 738 mmHg 47%
    22:00 +17°C° 0 mm 2 mps 739 mmHg 46%
    23:00 +16°C° 0 mm 2 mps 739 mmHg 45%

    Tomorrow, 21 September, Saturday

    Time Temperature Precipitation Wind Pressure Humidity
    00:00 +16°C° 0 mm 3 mps 739 mmHg 44%
    01:00 +14°C° 0 mm 3 mps 739 mmHg 43%
    02:00 +14°C° 0 mm 3 mps 739 mmHg 43%
    03:00 +13°C° 0 mm 3 mps 739 mmHg 43%
    04:00 +13°C° 0 mm 3 mps 740 mmHg 43%
    05:00 +14°C° 0 mm 3 mps 740 mmHg 42%
    06:00 +16°C° 0 mm 3 mps 740 mmHg 41%
    07:00 +16°C° 0 mm 3 mps 740 mmHg 40%
    08:00 +19°C° 0 mm 2 mps 740 mmHg 36%
    09:00 +21°C° 0 mm 2 mps 740 mmHg 32%
    10:00 +24°C° 0 mm 2 mps 741 mmHg 28%
    11:00 +25°C° 0 mm 2 mps 740 mmHg 27%
    12:00 +26°C° 0 mm 1 mps 740 mmHg 27%
    13:00 +27°C° 0 mm 1 mps 740 mmHg 26%
    14:00 +27°C° 0 mm 2 mps 740 mmHg 28%
    15:00 +26°C° 0 mm 2 mps 740 mmHg 29%
    16:00 +26°C° 0 mm 3 mps 739 mmHg 31%
    17:00 +23°C° 0 mm 2 mps 739 mmHg 37%
    18:00 +21°C° 0 mm 1 mps 739 mmHg 43%
    19:00 +17°C° 0 mm 0 mps 740 mmHg 49%
    20:00 +19°C° 0 mm 1 mps 740 mmHg 49%
    21:00 +19°C° 0 mm 1 mps 740 mmHg 50%
    22:00 +18°C° 0 mm 1 mps 740 mmHg 50%
    23:00 +18°C° 0 mm 1 mps 740 mmHg 52%

    Day after tomorrow, 22 September, Sunday

    Time Temperature Precipitation Wind Pressure Humidity
    00:00 +18°C° 0 mm 1 mps 740 mmHg 53%
    01:00 +16°C° 0 mm 1 mps 739 mmHg 54%
    02:00 +16°C° 0 mm 1 mps 739 mmHg 56%
    03:00 +16°C° 0 mm 1 mps 739 mmHg 58%
    04:00 +16°C° 0 mm 1 mps 739 mmHg 59%
    05:00 +18°C° 0 mm 1 mps 739 mmHg 57%
    06:00 +19°C° 0 mm 1 mps 739 mmHg 55%
    07:00 +20°C° 0 mm 1 mps 739 mmHg 53%
    08:00 +22°C° 0 mm 1 mps 739 mmHg 47%
    09:00 +24°C° 0 mm 1 mps 739 mmHg 41%
    10:00 +26°C° 0 mm 1 mps 739 mmHg 35%
    11:00 +27°C° 0 mm 2 mps 739 mmHg 34%
    12:00 +27°C° 0 mm 2 mps 739 mmHg 33%
    13:00 +28°C° 0 mm 3 mps 738 mmHg 32%
    14:00 +27°C° 0 mm 3 mps 738 mmHg 37%
    15:00 +26°C° 0 mm 3 mps 737 mmHg 41%
    16:00 +26°C° 0 mm 3 mps 737 mmHg 46%
    17:00 +24°C° 0 mm 2 mps 737 mmHg 56%
    18:00 +22°C° 0 mm 1 mps 737 mmHg 67%
    19:00 +18°C° 0 mm 0 mps 737 mmHg 77%
    20:00 +18°C° 0 mm 0 mps 737 mmHg 78%
    21:00 +17°C° 0 mm 0 mps 737 mmHg 78%
    22:00 +19°C° 0 mm 1 mps 737 mmHg 78%
    23:00 +19°C° 0 mm 1 mps 737 mmHg 77%

    23 September, Monday

    Time Temperature Precipitation Wind Pressure Humidity
    00:00 +19°C° 0 mm 1 mps 737 mmHg 75%
    01:00 +19°C° 0 mm 1 mps 737 mmHg 74%
    02:00 +20°C° 0 mm 1 mps 737 mmHg 69%
    03:00 +20°C° 0 mm 1 mps 736 mmHg 65%
    04:00 +21°C° 0 mm 1 mps 736 mmHg 61%
    05:00 +21°C° 0 mm 1 mps 736 mmHg 59%
    06:00 +22°C° 0 mm 1 mps 736 mmHg 57%
    07:00 +22°C° 0 mm 1 mps 736 mmHg 56%
    08:00 +24°C° 0 mm 1 mps 736 mmHg 52%
    09:00 +26°C° 0 mm 1 mps 736 mmHg 47%
    10:00 +27°C° 0 mm 1 mps 736 mmHg 43%
    11:00 +27°C° 0 mm 2 mps 736 mmHg 45%
    12:00 +27°C° 0 mm 2 mps 735 mmHg 47%
    13:00 +27°C° 0 mm 2 mps 735 mmHg 48%
    14:00 +27°C° 0.2 mm 2 mps 734 mmHg 53%
    15:00 +26°C° 0.2 mm 2 mps 734 mmHg 57%
    16:00 +26°C° 0.2 mm 2 mps 734 mmHg 61%
    17:00 +25°C° 0 mm 2 mps 734 mmHg 65%
    18:00 +24°C° 0 mm 2 mps 733 mmHg 68%
    19:00 +23°C° 0 mm 2 mps 733 mmHg 71%
    20:00 +21°C° 0.1 mm 2 mps 733 mmHg 71%
    21:00 +21°C° 0.1 mm 2 mps 733 mmHg 72%
    22:00 +22°C° 0.1 mm 1 mps 733 mmHg 72%
    23:00 +21°C° 0.7 mm 2 mps 732 mmHg 75%

    24 September, Tuesday

    Time Temperature Precipitation Wind Pressure Humidity
    00:00 +20°C° 0.7 mm 2 mps 732 mmHg 78%
    01:00 +20°C° 0.7 mm 2 mps 731 mmHg 82%
    02:00 +20°C° 0.8 mm 2 mps 731 mmHg 84%
    03:00 +20°C° 0.8 mm 2 mps 731 mmHg 87%
    04:00 +20°C° 0.8 mm 2 mps 730 mmHg 90%
    05:00 +20°C° 0.4 mm 2 mps 730 mmHg 88%
    06:00 +20°C° 0.4 mm 2 mps 730 mmHg 86%
    07:00 +21°C° 0.4 mm 2 mps 730 mmHg 84%
    08:00 +21°C° 0.5 mm 2 mps 730 mmHg 76%
    09:00 +22°C° 0.5 mm 3 mps 730 mmHg 68%
    10:00 +24°C° 0.5 mm 3 mps 731 mmHg 61%
    11:00 +24°C° 0.7 mm 3 mps 730 mmHg 60%
    12:00 +23°C° 0.7 mm 4 mps 730 mmHg 59%
    13:00 +23°C° 0.7 mm 4 mps 730 mmHg 58%
    14:00 +23°C° 0.3 mm 4 mps 730 mmHg 59%
    15:00 +22°C° 0.3 mm 3 mps 730 mmHg 60%
    16:00 +22°C° 0.3 mm 3 mps 730 mmHg 61%
    17:00 +21°C° 0 mm 2 mps 730 mmHg 69%
    18:00 +20°C° 0 mm 1 mps 731 mmHg 76%
    19:00 +17°C° 0 mm 0 mps 731 mmHg 84%
    20:00 +19°C° 0 mm 1 mps 731 mmHg 85%
    21:00 +18°C° 0 mm 1 mps 731 mmHg 86%
    22:00 +18°C° 0 mm 1 mps 732 mmHg 86%
    23:00 +18°C° 0 mm 1 mps 731 mmHg 86%

    25 September, Wednesday

    Time Temperature Precipitation Wind Pressure Humidity
    00:00 +18°C° 0 mm 1 mps 731 mmHg 86%
    01:00 +18°C° 0 mm 1 mps 731 mmHg 85%
    02:00 +16°C° 0 mm 1 mps 731 mmHg 84%
    03:00 +16°C° 0 mm 1 mps 731 mmHg 84%
    04:00 +16°C° 0 mm 1 mps 731 mmHg 83%
    05:00 +18°C° 0 mm 1 mps 731 mmHg 79%
    06:00 +18°C° 0 mm 1 mps 732 mmHg 76%
    07:00 +19°C° 0 mm 1 mps 732 mmHg 72%
    08:00 +21°C° 0 mm 1 mps 732 mmHg 65%
    09:00 +23°C° 0 mm 1 mps 733 mmHg 59%
    10:00 +25°C° 0 mm 1 mps 733 mmHg 52%
    11:00 +25°C° 0 mm 1 mps 733 mmHg 50%
    12:00 +26°C° 0 mm 2 mps 733 mmHg 47%
    13:00 +27°C° 0 mm 3 mps 733 mmHg 45%
    14:00 +26°C° 0 mm 3 mps 733 mmHg 48%
    15:00 +26°C° 0 mm 3 mps 733 mmHg 50%
    16:00 +25°C° 0 mm 3 mps 733 mmHg 53%
    17:00 +23°C° 0 mm 2 mps 733 mmHg 61%
    18:00 +22°C° 0 mm 1 mps 733 mmHg 70%
    19:00 +20°C° 0 mm 1 mps 733 mmHg 78%
    20:00 +19°C° 0 mm 1 mps 734 mmHg 79%
    21:00 +17°C° 0 mm 0 mps 734 mmHg 80%
    22:00 +17°C° 0 mm 0 mps 734 mmHg 81%
    23:00 +19°C° 0 mm 1 mps 734 mmHg 80%
    Show more